AI4ZL Weather Reports


Display with metric or nautical units.
time (UTC)temp
F
wind
direction
speed
MPH
gust
MPH
rain 1hr
in
rain 24hr
in
rain mn
in
humidity
%
barometer
mb
20260508212053 75 176 2.0 6.0 0.00 0.00 0.00 47 1012.0
20260508211020 75 209 1.0 4.0 0.00 0.00 0.00 49 1012.3
20260508210026 74 203 2.0 6.0 0.00 0.00 0.00 49 1011.9
20260508205031 74 156 3.0 7.0 0.00 0.00 0.00 50 1012.0
20260508204019 74 225 3.0 9.0 0.00 0.00 0.00 50 1012.2
20260508203044 75 242 4.0 11.0 0.00 0.00 0.00 50 1012.4
20260508202028 75 193 2.0 6.0 0.00 0.00 0.00 51 1012.5
20260508201036 74 181 3.0 9.0 0.00 0.00 0.00 51 1012.6
20260508195026 74 179 3.0 7.0 0.00 0.00 0.00 51 1012.7
20260508194031 74 243 5.0 9.0 0.00 0.00 0.00 51 1013.0
20260508193021 73 203 3.0 8.0 0.00 0.00 0.00 51 1013.1
20260508192025 74 246 4.0 14.0 0.00 0.00 0.00 52 1013.4
20260508191029 73 217 2.0 6.0 0.00 0.00 0.00 53 1013.3
20260508190017 74 238 3.0 10.0 0.00 0.00 0.00 52 1013.7
20260508185022 73 203 3.0 7.0 0.00 0.00 0.00 51 1014.1
20260508184047 73 233 3.0 8.0 0.00 0.00 0.00 53 1014.1
20260508183032 72 244 6.0 11.0 0.00 0.00 0.00 53 1014.3
20260508182020 72 248 3.0 9.0 0.00 0.00 0.00 53 1014.7
20260508181025 72 150 3.0 7.0 0.00 0.00 0.00 55 1014.6
20260508180030 71 206 3.0 7.0 0.00 0.00 0.00 54 1014.7
20260508175018 71 248 3.0 10.0 0.00 0.00 0.00 55 1014.9
20260508174043 71 205 4.0 10.0 0.00 0.00 0.00 55 1015.0
20260508173029 71 251 5.0 13.0 0.00 0.00 0.00 55 1015.1
20260508172034 70 207 4.0 9.0 0.00 0.00 0.00 56 1015.2
20260508171020 70 250 6.0 8.0 0.00 0.00 0.00 56 1015.1
20260508170025 70 233 4.0 13.0 0.00 0.00 0.00 56 1015.5
20260508165030 69 255 4.0 9.0 0.00 0.00 0.00 57 1015.7
20260508164019 69 246 3.0 9.0 0.00 0.00 0.00 57 1015.8
20260508163023 69 217 4.0 10.0 0.00 0.00 0.00 58 1015.9
20260508162028 69 241 3.0 11.0 0.00 0.00 0.00 58 1016.0
20260508161016 68 192 4.0 7.0 0.00 0.00 0.00 59 1016.2
20260508160022 68 176 4.0 8.0 0.00 0.00 0.00 59 1016.3
20260508155026 68 142 2.0 9.0 0.00 0.00 0.00 59 1016.4
20260508154031 68 230 3.0 9.0 0.00 0.00 0.00 59 1016.6
20260508153020 67 225 3.0 8.0 0.00 0.00 0.00 60 1016.7
20260508152024 67 205 3.0 9.0 0.00 0.00 0.00 59 1016.9
20260508151029 66 216 2.0 4.0 0.00 0.00 0.00 63 1017.0
20260508150038 66 191 3.0 8.0 0.00 0.00 0.00 62 1017.0
20260508145043 65 199 2.0 9.0 0.00 0.00 0.00 62 1017.1
20260508144027 65 244 3.0 9.0 0.00 0.00 0.00 63 1017.5
20260508143032 64 210 2.0 7.0 0.00 0.00 0.00 63 1017.5
20260508142020 63 222 2.0 4.0 0.00 0.00 0.00 66 1017.4
20260508141025 63 252 4.0 8.0 0.00 0.00 0.00 65 1017.5
20260508140031 62 231 2.0 7.0 0.00 0.00 0.00 67 1017.5
20260508135038 61 193 3.0 7.0 0.00 0.00 0.00 66 1017.5
20260508134023 60 230 1.0 7.0 0.00 0.00 0.00 67 1017.7
20260508133028 60 218 2.0 7.0 0.00 0.00 0.00 67 1017.6
20260508132033 59 190 1.0 4.0 0.00 0.00 0.00 68 1017.7
20260508131021 58 220 1.0 4.0 0.00 0.00 0.00 68 1017.7
20260508130046 57 202 1.0 4.0 0.00 0.00 0.00 70 1017.6
20260508125032 57 178 1.0 3.0 0.00 0.00 0.00 72 1017.5
20260508124019 56 190 1.0 3.0 0.00 0.00 0.00 73 1017.5
20260508123024 54 189 1.0 2.0 0.00 0.00 0.00 75 1017.6
20260508122029 53 153 0.0 2.0 0.00 0.00 0.00 80 1017.2
20260508121016 50 116 1.0 2.0 0.00 0.00 0.00 83 1017.2
20260508120038 49 118 0.0 1.0 0.00 0.00 0.00 86 1017.2
20260508115026 47 103 0.0 1.0 0.00 0.00 0.00 91 1017.1
20260508114031 46 0.0 0.0 0.00 0.00 0.00 93 1016.8
20260508113036 45 110 0.0 1.0 0.00 0.00 0.00 97 1016.6
20260508112042 44 0.0 0.0 0.00 0.00 0.00 98 1016.5
20260508111030 44 0.0 0.0 0.00 0.00 0.00 98 1016.3
20260508110034 44 0.0 0.0 0.00 0.00 0.00 98 1016.7
20260508105059 44 0.0 0.0 0.00 0.00 0.00 98 1016.5
20260508104027 44 0.0 0.0 0.00 0.00 0.00 98 1016.5
20260508103033 44 72 0.0 2.0 0.00 0.00 0.00 98 1016.6
20260508102038 44 96 1.0 3.0 0.00 0.00 0.00 98 1016.5
20260508101042 44 0.0 0.0 0.00 0.00 0.00 98 1016.4
20260508100030 44 0.0 0.0 0.00 0.00 0.00 98 1016.3
20260508095019 44 79 1.0 3.0 0.00 0.00 0.00 98 1016.4
20260508094023 45 0.0 0.0 0.00 0.00 0.00 98 1016.2
20260508093028 45 0.0 0.0 0.00 0.00 0.00 99 1016.3
20260508092016 44 288 0.0 1.0 0.00 0.00 0.00 99 1016.5
20260508091021 44 0.0 0.0 0.00 0.00 0.00 99 1016.4
20260508090026 43 0.0 0.0 0.00 0.00 0.00 99 1016.5
20260508085031 43 0.0 0.0 0.00 0.00 0.00 99 1016.7
20260508084100 43 0.0 0.0 0.00 0.00 0.00 99 1016.7
20260508083024 43 0.0 0.0 0.00 0.00 0.00 99 1016.6
20260508082049 43 0.0 0.0 0.00 0.00 0.00 99 1016.8
20260508081017 43 0.0 0.0 0.00 0.00 0.00 99 1016.9
20260508080022 44 0.0 0.0 0.00 0.00 0.00 99 1016.9
20260508075047 44 0.0 0.0 0.00 0.00 0.00 99 1017.1
20260508074032 44 0.0 0.0 0.00 0.00 0.00 99 1017.2
20260508073020 44 0.0 0.0 0.00 0.00 0.00 99 1017.2
20260508072025 44 0.0 0.0 0.00 0.00 0.00 99 1017.2
20260508071030 44 0.0 0.0 0.00 0.00 0.00 99 1017.3
20260508070018 44 0.0 0.0 0.00 0.00 0.00 98 1017.3
20260508065022 45 0.0 0.0 0.00 0.00 0.00 98 1017.3
20260508064028 45 0.0 0.0 0.00 0.00 0.00 98 1017.5
20260508063053 45 0.0 0.0 0.00 0.00 0.00 98 1017.6
20260508062020 45 0.0 0.0 0.00 0.00 0.00 98 1017.6
20260508061025 45 0.0 0.0 0.00 0.00 0.00 98 1017.6
20260508060030 45 0.0 0.0 0.00 0.00 0.00 98 1017.7
20260508055018 46 0.0 0.0 0.00 0.00 0.00 98 1017.7
20260508054023 46 0.0 0.0 0.00 0.00 0.00 98 1017.7
20260508053028 46 0.0 0.0 0.00 0.00 0.00 98 1017.4
20260508052017 46 0.0 0.0 0.00 0.00 0.00 98 1017.6
20260508051021 46 0.0 1.0 0.00 0.00 0.00 98 1017.6
20260508050047 46 0.0 0.0 0.00 0.00 0.00 97 1017.7
20260508045031 46 0.0 0.0 0.00 0.00 0.00 97 1017.7
20260508044040 47 326 0.0 1.0 0.00 0.00 0.00 97 1017.6
20260508043024 47 0.0 0.0 0.00 0.00 0.00 97 1017.4
20260508042029 47 0.0 0.0 0.00 0.00 0.00 97 1017.5
20260508041018 47 0.0 0.0 0.00 0.00 0.00 96 1017.4
20260508040022 47 0.0 0.0 0.00 0.00 0.00 96 1017.5
20260508035027 48 0.0 0.0 0.00 0.00 0.00 96 1017.7
20260508034032 48 0.0 0.0 0.00 0.00 0.00 95 1017.7
20260508033020 48 0.0 0.0 0.00 0.00 0.00 95 1017.5
20260508032024 49 0.0 0.0 0.00 0.00 0.00 94 1017.4
20260508031030 49 0.0 0.0 0.00 0.00 0.00 94 1017.4
20260508030018 49 0.0 0.0 0.00 0.00 0.00 93 1017.5
20260508025023 49 0.0 0.0 0.00 0.00 0.00 92 1017.4
20260508024048 50 0.0 0.0 0.00 0.00 0.00 91 1017.2
20260508023033 49 0.0 0.0 0.00 0.00 0.00 89 1017.3
20260508022020 50 0.0 0.0 0.00 0.00 0.00 88 1017.3
20260508021025 51 0.0 0.0 0.00 0.00 0.00 87 1017.1
20260508020052 51 0.0 0.0 0.00 0.00 0.00 84 1017.0
20260508015018 52 0.0 0.0 0.00 0.00 0.00 82 1017.1
20260508014045 53 0.0 0.0 0.00 0.00 0.00 79 1016.9
20260508013028 53 0.0 0.0 0.00 0.00 0.00 78 1016.8
20260508012016 54 0.0 0.0 0.00 0.00 0.00 74 1016.8
20260508011022 55 0.0 0.0 0.00 0.00 0.00 76 1016.7
20260508010047 56 325 0.0 1.0 0.00 0.00 0.00 72 1016.6
20260508005051 58 0.0 0.0 0.00 0.00 0.00 65 1016.4
20260508004039 59 0.0 0.0 0.00 0.00 0.00 60 1016.4
20260508003045 61 0.0 0.0 0.00 0.00 0.00 57 1016.3
20260508002029 63 0.0 0.0 0.00 0.00 0.00 50 1016.2
20260508001017 64 0.0 0.0 0.00 0.00 0.00 48 1016.4
20260508000022 67 284 0.0 1.0 0.00 0.00 0.00 41 1016.3
20260507235027 66 294 1.0 2.0 0.00 0.00 0.00 37 1016.2
20260507234032 66 267 1.0 2.0 0.00 0.00 0.00 38 1016.1
20260507233020 67 292 2.0 4.0 0.00 0.00 0.00 40 1016.5
20260507232025 67 296 0.0 1.0 0.00 0.00 0.00 37 1016.4
20260507231030 67 296 1.0 2.0 0.00 0.00 0.00 36 1016.4
20260507230039 67 322 2.0 4.0 0.00 0.00 0.00 37 1016.5
20260507225023 67 272 3.0 6.0 0.00 0.00 0.00 38 1016.6
20260507224028 68 286 3.0 7.0 0.00 0.00 0.00 37 1016.7
20260507223015 67 289 2.0 8.0 0.00 0.00 0.00 38 1016.7
20260507222020 67 266 3.0 6.0 0.00 0.00 0.00 38 1016.6
20260507221026 68 304 3.0 10.0 0.00 0.00 0.00 38 1016.6
20260507220032 70 272 1.0 2.0 0.00 0.00 0.00 35 1016.8
20260507215019 70 49 1.0 2.0 0.00 0.00 0.00 38 1016.9
20260507214023 67 332 3.0 6.0 0.00 0.00 0.00 39 1016.6
20260507213028 68 284 1.0 6.0 0.00 0.00 0.00 38 1016.6